Ekspress AM-33

operational
NORAD ID: 32478 Int'l Des: 2008-003 Owner: KS Country: RU
HEOCIRCULAR

About Ekspress AM-33

Description loading...

Live Position

Loading 3D Globe...

Upcoming Passes

Altitude History

Altitude vs Time

uPlot chart will show altitude changes over time

Two-Line Element Set

1 32478U 08003A 25338.87698749 -.00000094 00000-0 00000-0 0 9998
2 32478 4.3032 77.7202 0016150 170.4238 221.1255 1.00149129 51798
Epoch: Dec 4, 2025 • Age: 25 hours

Current Status

Altitude 35862.5 km
Velocity 3.07 km/s
Sub-Earth Point 2.92°N, 78.94°E
Launch Date Jan 28, 2008
Age 17.8 years
Type other

Technical Details

Classification Payload
Mass 2579.00 kg
Dry Mass 1500.00 kg
Total Mass 2579.00 kg
Length 6.00 m
Diameter 2.00 m
Span 26.50 m
Shape Cyl + 2 Pan
Manufacturer RESH
Bus Type Ekspress-2000
Phase Status In Orbit
Owner/State KS/RU

Large Constellations

Loading constellations...